Date,TemperatureHighF,TemperatureAvgF,TemperatureLowF,DewpointHighF,DewpointAvgF,DewpointLowF,HumidityHigh,HumidityAvg,HumidityLow,PressureMaxIn,PressureMinIn,WindSpeedMaxMPH,WindSpeedAvgMPH,GustSpeedMaxMPH,PrecipitationSumIn
2014-1-1,60,55,51,51,48,45,82,76,67,29.99,29.89,4,2,9,0.00
2014-1-2,61,56,51,54,49,44,87,77,64,30.00,29.95,4,2,12,0.14
2014-1-3,64,60,58,56,53,52,87,79,72,30.07,29.97,5,3,12,0.01
2014-1-4,61,60,58,59,56,55,95,87,82,30.07,29.89,6,4,21,0.41
2014-1-5,68,58,49,64,52,42,89,79,65,30.17,29.65,12,5,27,29.66
2014-1-6,61,54,50,49,46,43,83,75,62,30.27,29.93,4,1,8,0.00
2014-1-7,62,55,51,54,50,46,91,83,71,30.38,30.26,2,0,6,0.00
2014-1-8,61,55,51,55,52,49,94,87,74,30.42,30.35,2,1,6,0.00
2014-1-9,60,56,52,56,51,48,91,84,77,30.36,30.25,1,0,4,0.00
2014-1-10,59,56,52,52,50,46,85,78,72,30.25,30.20,3,1,7,0.00
2014-1-11,59,54,51,51,48,46,86,80,70,30.28,30.22,2,0,4,0.00
2014-1-12,57,54,51,53,49,47,89,84,79,30.24,30.17,3,0,7,0.00
2014-1-13,63,56,52,52,49,46,86,77,62,30.19,30.05,2,0,4,0.00
2014-1-14,60,56,52,54,51,50,91,84,75,30.05,29.86,9,3,18,1.29
2014-1-15,62,54,50,54,49,44,92,81,62,30.03,29.85,3,1,8,0.43
2014-1-16,60,54,50,55,49,45,91,83,72,30.15,30.02,2,0,6,0.01
2014-1-17,60,59,56,53,50,47,77,73,67,30.13,30.03,6,4,16,0.00
2014-1-18,64,61,59,56,53,50,82,74,66,30.06,29.81,14,7,27,0.00
2014-1-19,64,62,60,57,55,52,85,79,71,29.83,29.66,14,7,25,0.00
2014-1-20,62,58,54,55,52,49,88,81,65,29.72,29.50,13,5,26,0.61
2014-1-21,57,55,52,52,50,48,89,84,77,29.85,29.55,14,6,30,0.90
2014-1-22,59,55,51,51,47,42,86,76,59,30.09,29.85,9,4,21,0.14
2014-1-23,58,55,52,53,49,43,87,78,63,30.10,29.97,6,3,12,0.35
2014-1-24,58,54,49,53,48,44,86,79,68,30.00,29.50,11,5,24,0.45
2014-1-25,57,50,46,44,39,33,87,68,47,29.86,29.51,4,1,11,0.01
2014-1-26,54,48,42,39,34,29,71,61,43,29.85,29.71,4,1,12,0.00
2014-1-27,55,51,45,52,41,30,89,68,43,29.81,29.46,8,2,16,0.52
2014-1-28,56,53,46,48,43,34,85,68,51,29.62,29.37,12,5,24,0.12
2014-1-29,58,53,45,50,44,38,86,71,52,29.89,29.60,9,3,22,0.12
2014-1-30,62,60,56,52,49,46,77,68,63,29.90,29.84,14,9,26,0.04
2014-1-31,64,63,60,55,52,48,83,68,58,29.88,29.81,15,11,33,0.11
2014-2-1,64,60,57,57,55,52,92,84,70,29.91,29.78,12,4,24,0.34
2014-2-2,60,57,56,56,54,52,93,90,75,29.79,29.71,11,1,21,0.27
2014-2-3,58,54,52,54,50,47,90,85,82,29.98,29.78,9,2,15,0.28
2014-2-4,57,54,52,52,48,45,88,81,75,30.11,29.98,5,2,14,0.38
2014-2-5,59,55,51,51,47,42,83,76,64,30.10,29.96,6,2,17,0.08
2014-2-6,59,56,52,53,47,43,87,72,57,30.10,29.83,12,5,27,0.41
2014-2-7,62,56,51,51,48,45,84,74,63,30.15,30.00,8,3,17,0.00
2014-2-8,62,58,56,55,50,46,86,74,63,30.01,29.93,9,4,19,0.07
2014-2-9,59,57,54,54,49,45,87,73,63,30.01,29.77,14,7,34,0.63
2014-2-10,62,57,51,55,48,43,84,71,54,30.01,29.75,13,6,24,0.06
2014-2-11,65,59,55,58,54,49,86,83,74,29.86,29.60,10,3,18,0.18
2014-2-12,61,57,52,51,48,45,80,74,63,29.97,29.60,9,5,25,0.04
2014-2-13,61,55,49,54,47,44,88,76,62,30.07,29.96,4,1,11,0.00
2014-2-14,63,59,55,54,51,48,82,75,63,30.07,29.87,10,3,21,0.00
2014-2-15,63,59,53,54,52,47,85,77,70,30.19,30.07,4,2,12,0.00
2014-2-16,68,60,54,54,50,46,86,72,48,30.18,30.11,5,2,11,0.00
2014-2-17,67,62,56,54,51,46,76,67,62,30.19,29.95,6,3,14,0.00
2014-2-18,68,62,54,54,48,42,83,61,44,30.19,30.09,9,3,18,0.00
2014-2-19,64,61,56,57,53,49,88,74,61,30.10,30.00,13,5,24,0.00
2014-2-20,61,58,55,57,53,52,91,86,73,30.05,29.95,4,1,11,0.43
2014-2-21,61,56,52,54,51,48,92,84,68,30.02,29.91,4,2,11,0.50
2014-2-22,61,56,50,53,48,43,87,75,66,30.11,30.00,6,2,15,0.25
2014-2-23,61,54,50,53,46,39,85,74,61,30.17,30.08,4,1,8,0.00
2014-2-24,61,54,48,43,40,38,71,62,47,30.19,30.12,4,1,7,0.00
2014-2-25,63,53,47,49,43,39,81,68,49,30.24,30.16,3,1,8,0.00
2014-2-26,62,56,50,50,46,42,82,70,50,30.29,30.22,4,2,11,0.05
2014-2-27,57,54,51,51,48,44,93,80,67,30.27,30.16,7,3,16,1.38
2014-2-28,58,54,52,49,44,41,79,70,63,30.17,29.84,7,3,16,0.17
2014-3-1,56,52,47,49,45,38,87,76,64,29.84,29.52,11,4,27,0.81
2014-3-2,53,48,45,45,42,39,85,80,69,29.60,29.46,6,2,15,0.34
2014-3-3,60,53,45,48,44,39,83,71,57,29.60,29.36,12,2,25,0.05
2014-3-4,60,54,49,51,44,40,89,70,53,29.54,29.35,13,5,30,0.66
2014-3-5,65,54,47,48,43,40,84,66,42,29.85,29.54,6,2,15,0.05
2014-3-6,65,56,51,44,41,38,68,56,42,30.06,29.85,4,1,8,0.00
2014-3-7,66,58,52,45,42,38,66,56,43,30.15,30.05,4,1,8,0.00
2014-3-8,64,56,50,44,41,38,68,58,44,30.29,30.11,3,1,8,0.00
2014-3-9,66,58,52,43,40,36,63,52,36,30.29,30.15,4,1,9,0.00
2014-3-10,57,54,52,44,40,37,65,59,50,30.15,30.02,3,2,11,0.00
2014-3-11,60,54,49,44,39,36,68,58,47,30.31,30.05,3,1,6,0.00
2014-3-12,64,56,49,45,40,32,70,56,31,30.42,30.30,4,1,8,0.00
2014-3-13,66,56,48,49,44,37,83,64,39,30.40,30.32,4,1,9,0.00
2014-3-14,64,57,51,52,47,41,83,71,59,30.34,30.23,4,1,10,0.00
2014-3-15,66,58,52,56,51,43,89,76,55,30.24,30.02,4,2,10,0.00
2014-3-16,64,59,54,55,52,48,88,79,69,30.14,29.98,4,2,8,0.00
2014-3-17,65,60,55,54,53,50,87,79,65,30.27,30.14,3,1,8,0.00
2014-3-18,66,59,53,56,52,49,89,79,66,30.30,30.23,3,1,9,0.00
2014-3-19,66,59,53,54,52,6,89,78,63,30.27,30.20,10,1,10,0.00
2014-3-20,71,61,53,59,52,46,89,72,42,30.30,30.24,5,1,10,0.00
2014-3-21,68,61,56,58,54,51,90,79,65,30.26,30.19,4,1,10,0.00
2014-3-22,66,61,58,57,55,54,90,83,73,30.20,30.04,5,2,12,0.00
2014-3-23,62,59,56,57,53,44,87,81,65,30.04,29.82,10,5,24,0.19
2014-3-24,57,53,48,45,42,38,82,67,54,29.89,29.80,16,6,34,0.39
2014-3-25,58,51,46,46,44,39,87,75,61,29.91,29.75,6,2,20,0.50
2014-3-26,61,54,46,52,47,43,90,77,62,29.84,29.73,9,3,19,0.25
2014-3-27,60,54,51,50,47,44,86,75,64,29.74,29.58,11,5,24,0.59
2014-3-28,63,56,51,51,48,45,87,74,60,30.12,29.73,5,2,10,0.44
2014-3-29,69,59,50,53,47,42,81,66,49,30.19,30.10,5,1,8,0.00
2014-3-30,70,60,53,55,50,46,85,72,52,30.19,30.08,2,0,5,0.00
2014-3-31,67,60,52,57,52,48,86,76,57,30.11,30.01,5,2,10,0.00
2014-4-1,67,61,56,56,53,51,85,76,67,30.14,30.04,7,3,13,0.00
2014-4-2,68,59,54,56,52,49,88,76,61,30.11,30.03,3,1,8,0.00
2014-4-3,66,61,54,55,50,44,87,70,46,30.04,29.77,8,3,19,0.00
2014-4-4,68,62,53,57,52,45,86,72,45,29.80,29.69,8,3,17,0.60
2014-4-5,69,60,53,59,52,47,88,77,57,29.85,29.72,7,2,11,0.57
2014-4-6,70,62,57,56,51,47,82,67,56,30.06,29.85,4,1,8,0.00
2014-4-7,72,62,55,58,54,51,87,74,55,30.18,30.03,3,1,8,0.00
2014-4-8,67,62,59,58,56,51,88,79,72,30.23,30.16,5,3,13,0.00
2014-4-9,68,63,60,58,56,54,86,78,64,30.17,30.04,5,2,11,0.00
2014-4-10,70,62,53,54,44,32,76,52,27,30.17,30.09,5,2,8,0.00
2014-4-11,68,62,57,60,55,50,89,78,66,30.15,30.09,4,2,11,0.00
2014-4-12,67,61,56,57,55,52,93,80,65,30.15,30.06,4,1,9,0.00
2014-4-13,67,61,56,59,56,53,92,84,73,30.10,30.02,4,1,8,0.00
2014-4-14,70,62,53,58,53,45,88,72,47,30.15,30.04,4,2,8,0.00
2014-4-15,68,59,47,61,54,44,90,83,74,30.05,29.86,6,3,14,0.34
2014-4-16,62,54,47,45,40,33,84,60,38,30.08,29.93,6,2,19,0.00
2014-4-17,66,56,50,42,39,32,68,53,35,30.08,29.93,6,2,20,0.00
2014-4-18,64,57,49,50,44,38,78,63,51,29.94,29.81,4,1,9,0.00
2014-4-19,63,60,56,59,54,49,91,82,74,29.85,29.80,9,4,19,0.11
2014-4-20,69,63,60,57,54,50,88,75,61,29.82,29.72,9,4,18,0.00
2014-4-21,71,64,58,59,55,51,86,74,60,29.91,29.68,6,2,11,0.00
2014-4-22,71,64,59,62,58,55,94,83,68,29.99,29.88,4,1,7,0.07
2014-4-23,65,62,60,63,59,56,95,90,80,30.00,29.89,4,1,9,0.64
2014-4-24,72,64,57,64,59,55,94,85,70,29.97,29.92,4,1,8,0.00
2014-4-25,69,64,60,61,59,56,92,83,72,29.97,29.89,5,2,13,0.00
2014-4-26,68,62,60,61,58,56,94,88,77,29.91,29.81,6,2,10,0.28
2014-4-27,68,62,57,62,57,52,93,85,67,29.89,29.76,8,2,17,0.09
2014-4-28,64,60,55,56,54,50,90,80,71,29.85,29.70,9,4,21,0.20
2014-4-29,66,60,53,56,52,48,90,75,65,29.91,29.76,10,4,27,0.31
2014-4-30,69,63,59,60,56,54,87,79,69,29.95,29.89,6,2,14,0.00
2014-5-1,70,62,55,59,56,52,92,79,63,29.93,29.85,7,2,13,0.40
2014-5-2,66,61,57,57,55,51,86,79,68,29.94,29.81,5,2,14,0.22
2014-5-3,62,57,54,58,53,50,93,85,75,29.81,29.66,7,2,16,1.74
2014-5-4,69,61,54,56,51,46,86,71,53,29.94,29.68,3,1,8,0.00
2014-5-5,70,62,54,55,49,43,79,63,46,30.13,29.94,6,2,10,0.00
2014-5-6,70,64,59,61,57,55,87,79,65,30.25,30.13,4,2,8,0.00
2014-5-7,70,64,59,59,56,54,88,77,63,30.24,30.12,4,2,10,0.00
2014-5-8,71,64,58,61,58,54,88,79,67,30.15,30.08,5,2,9,0.00
2014-5-9,72,65,59,64,60,56,91,82,62,30.12,30.07,5,2,9,0.00
2014-5-10,74,66,61,62,60,57,90,79,65,30.14,30.08,4,1,8,0.00
2014-5-11,72,66,62,62,60,57,87,79,67,30.13,30.00,5,2,12,0.00
2014-5-12,73,67,63,64,60,53,88,78,61,30.07,29.99,5,2,11,0.00
2014-5-13,73,66,60,60,56,52,79,70,53,30.07,29.89,8,2,13,0.01
2014-5-14,72,65,59,57,50,42,80,60,36,30.09,29.83,10,4,21,0.00
2014-5-15,72,63,56,54,48,44,76,59,42,30.08,30.00,5,2,12,0.00
2014-5-16,69,61,57,51,47,42,70,58,47,30.04,29.96,4,1,8,0.00
2014-5-17,68,62,54,56,53,47,89,71,62,30.17,30.01,5,2,14,0.61
2014-5-18,74,66,60,57,54,46,83,67,43,30.17,30.09,4,2,11,0.00
2014-5-19,69,65,62,58,55,50,75,69,56,30.10,30.05,5,1,11,0.00
2014-5-20,74,67,60,62,58,53,85,73,59,30.17,30.09,4,1,7,0.00
2014-5-21,78,69,62,67,61,58,92,77,56,30.17,30.11,3,1,7,0.00
2014-5-22,81,71,62,66,61,56,89,74,48,30.13,30.06,4,1,10,0.00
2014-5-23,73,70,66,67,63,59,86,79,65,30.11,29.95,4,2,11,0.01
2014-5-24,77,71,66,68,64,59,90,79,66,30.11,30.03,4,2,8,0.00
2014-5-25,86,73,65,69,64,59,87,74,48,30.09,29.99,3,1,7,0.08
2014-5-26,75,71,67,68,64,62,90,81,66,30.09,30.01,6,3,14,0.00
2014-5-27,74,68,65,63,59,52,85,73,60,30.09,30.03,7,3,12,0.00
2014-5-28,74,67,63,61,56,54,75,69,60,30.07,29.97,6,2,11,0.00
2014-5-29,74,67,62,64,59,54,85,74,62,29.98,29.91,7,2,17,0.00
2014-5-30,74,68,63,65,62,58,88,80,70,30.03,29.96,7,3,14,0.00
2014-5-31,74,67,62,64,60,55,92,78,64,30.05,29.99,4,1,11,0.00
2014-6-1,76,67,61,59,54,45,82,66,40,30.08,30.02,4,1,9,0.00
2014-6-2,80,71,61,62,54,50,78,56,35,30.08,29.96,4,1,8,0.00
2014-6-3,83,70,62,65,56,42,85,62,26,29.99,29.90,6,2,10,0.00
2014-6-4,77,72,61,68,63,53,87,75,64,30.03,29.91,4,2,9,0.00
2014-6-5,76,70,66,66,64,61,91,80,64,30.15,30.02,4,2,11,0.00
2014-6-6,78,70,62,70,65,60,96,84,65,30.18,30.11,3,1,6,0.00
2014-6-7,83,73,66,71,66,62,92,80,65,30.15,30.09,3,1,7,0.00
2014-6-8,86,75,67,72,67,62,91,76,47,30.13,30.09,4,1,7,0.00
2014-6-9,86,75,68,71,64,57,79,69,53,30.12,30.06,5,1,14,0.04
2014-6-10,89,77,70,73,66,61,83,70,45,30.13,30.07,3,1,8,0.00
2014-6-11,88,76,69,73,69,63,91,78,49,30.17,30.10,5,1,9,0.00
2014-6-12,88,78,72,77,72,68,96,83,58,30.17,30.08,4,1,8,0.00
2014-6-13,86,78,73,76,73,71,97,86,68,30.11,29.96,4,1,9,0.00
2014-6-14,83,77,72,74,71,65,95,81,68,29.97,29.84,5,2,11,0.00
2014-6-15,83,76,70,73,68,65,86,77,66,29.91,29.83,6,2,13,0.00
2014-6-16,77,71,64,72,67,59,97,87,58,30.01,29.87,10,2,24,0.90
2014-6-17,79,74,70,70,66,64,91,78,65,29.95,29.90,5,2,14,0.00
2014-6-18,79,72,66,70,66,63,94,82,68,30.03,29.93,5,2,11,0.14
2014-6-19,78,72,63,69,65,59,96,80,68,30.03,29.97,6,2,13,0.40
2014-6-20,80,72,65,68,65,62,91,79,64,30.04,29.98,4,1,9,0.00
2014-6-21,82,73,61,69,66,53,88,81,62,30.07,29.84,4,2,10,7.77
2014-6-22,82,74,67,73,68,65,95,81,61,30.07,29.96,4,1,8,0.00
2014-6-23,85,76,69,72,68,58,93,77,56,30.10,29.99,4,1,10,0.00
2014-6-24,86,78,72,70,66,58,87,67,46,30.00,29.79,4,1,10,0.00
2014-6-25,82,77,73,74,70,60,93,81,52,29.88,29.72,14,3,34,0.17
2014-6-26,84,76,72,74,71,65,95,84,63,29.83,29.74,6,2,11,0.00
2014-6-27,82,76,72,71,69,66,87,78,65,29.99,29.81,6,3,11,0.00
2014-6-28,83,76,70,72,69,66,92,80,66,30.02,29.95,4,2,11,0.00
2014-6-29,81,76,70,72,69,64,92,78,63,29.95,29.74,5,2,13,0.00
2014-6-30,78,75,69,74,67,62,91,75,64,29.90,29.67,10,4,23,0.00
2014-7-1,82,74,68,68,65,63,86,73,55,29.99,29.89,3,2,9,0.00
2014-7-2,83,75,68,68,65,63,91,73,56,30.09,29.95,4,1,8,0.00
2014-7-3,86,76,68,71,68,63,91,77,59,30.15,30.06,4,1,8,0.00
2014-7-4,89,79,71,72,68,62,90,72,47,30.06,29.89,5,1,10,0.00
2014-7-5,84,77,73,75,72,68,95,85,72,29.91,29.82,5,2,11,0.00
2014-7-6,85,77,72,75,71,68,91,81,69,29.91,29.85,4,2,10,0.00
2014-7-7,87,78,70,74,70,66,95,79,57,29.97,29.85,4,1,9,0.00
2014-7-8,83,78,75,75,68,60,88,72,53,29.87,29.78,9,4,21,0.00
2014-7-9,79,76,72,66,63,60,72,65,55,29.82,29.74,9,5,21,0.00
2014-7-10,75,72,68,66,62,59,91,71,61,29.74,29.64,11,5,25,0.08
2014-7-11,80,73,66,67,64,61,85,74,55,29.76,29.65,6,2,11,0.00
2014-7-12,80,74,70,69,66,63,87,76,64,29.86,29.76,6,3,12,0.00
2014-7-13,81,74,67,69,65,62,89,75,53,29.89,29.82,6,2,16,0.07
2014-7-14,80,73,68,70,66,63,90,79,64,29.89,29.81,7,2,14,0.06
2014-7-15,82,74,67,70,66,62,90,77,59,29.91,29.84,5,2,9,0.00
2014-7-16,85,77,69,72,69,66,92,79,60,29.93,29.87,4,1,7,0.00
2014-7-17,88,78,71,76,71,68,94,81,64,29.94,29.89,4,1,8,0.00
2014-7-18,88,78,72,77,72,69,95,81,56,29.94,29.86,4,1,8,0.00
2014-7-19,90,79,72,74,71,67,94,78,54,29.93,29.88,3,1,8,0.00
2014-7-20,88,80,73,75,72,67,92,77,57,29.95,29.86,3,1,8,0.00
2014-7-21,84,77,72,76,71,66,92,82,67,29.93,29.76,6,2,11,0.35
2014-7-22,79,72,67,70,67,64,95,84,71,29.76,29.62,5,2,13,0.51
2014-7-23,84,75,68,71,67,64,90,77,61,29.78,29.67,5,1,8,0.00
2014-7-24,85,77,71,74,71,67,92,80,67,29.83,29.75,3,1,10,0.00
2014-7-25,86,78,73,72,70,68,90,78,62,29.86,29.80,4,1,9,0.00
2014-7-26,86,77,72,76,71,68,93,83,61,29.85,29.70,3,1,6,0.13
2014-7-27,85,78,72,76,72,69,96,83,69,29.81,29.69,5,1,16,0.25
2014-7-28,86,78,72,74,71,68,90,79,66,29.84,29.78,3,1,8,0.00
2014-7-29,83,77,71,73,70,68,93,79,67,29.81,29.63,5,2,14,0.00
2014-7-30,79,76,70,74,66,61,87,73,59,29.71,29.59,7,4,17,0.04
2014-7-31,82,75,68,71,68,65,95,81,64,29.75,29.66,5,2,17,0.13
2014-8-1,86,78,72,74,72,69,92,82,68,29.75,29.70,4,1,8,0.00
2014-8-2,86,78,73,76,73,70,94,83,67,29.85,29.74,3,1,7,0.00
2014-8-3,88,79,75,74,72,69,89,78,59,29.88,29.79,4,1,8,0.00
2014-8-4,89,80,74,76,72,68,92,79,62,29.85,29.80,5,2,8,0.00
2014-8-5,87,80,75,76,73,66,91,78,68,29.84,29.75,6,3,14,0.00
2014-8-6,87,79,73,74,71,67,88,76,53,29.78,29.73,5,2,11,0.00
2014-8-7,87,79,72,72,68,63,85,69,53,29.84,29.74,4,2,9,0.00
2014-8-8,87,79,73,75,72,68,90,79,65,29.91,29.83,4,2,10,0.00
2014-8-9,88,79,74,77,72,68,93,80,63,29.96,29.88,3,1,8,0.00
2014-8-10,88,80,74,76,72,70,95,79,60,29.96,29.89,4,1,8,0.00
2014-8-11,87,79,72,75,71,69,94,78,57,29.92,29.84,4,1,11,0.00
2014-8-12,89,80,73,75,72,69,95,79,56,29.87,29.81,4,1,9,0.00
2014-8-13,87,79,61,77,73,53,93,83,63,30.11,29.78,4,1,8,0.00
2014-8-14,84,79,76,76,70,60,91,74,58,30.04,29.91,6,3,15,0.01
2014-8-15,83,77,73,67,65,62,76,67,54,30.09,30.03,6,3,17,0.05
2014-8-16,82,77,74,68,64,58,74,65,51,30.09,30.03,7,4,16,0.00
2014-8-17,84,77,72,68,65,60,76,66,49,30.11,30.03,5,2,10,0.00
2014-8-18,85,77,71,70,66,63,80,70,55,30.12,30.06,3,1,8,0.00
2014-8-19,82,76,69,69,66,64,88,73,59,30.09,30.00,4,2,13,0.00